Location: *
(51.1248°S, 108.4023°W)
Time: 01:02:01
(UTC+00:00)

USA 307 - Visible Passes

Search period start: 23 October 2021 00:00
Search period end: 02 November 2021 00:00
Orbit: 555 x 584 km, 54.0° (Epoch: 27 September)

Date Brightness Start Highest point End Pass type
(mag) Time Alt. Az. Time Alt. Az. Time Alt. Az.
23 Oct 3.5 03:51:22 10° W 03:55:44 58° S 03:59:20 15° E visible
23 Oct 3.1 05:31:29 10° WSW 05:35:22 68° WSW 05:35:22 68° WSW visible
24 Oct 3.4 03:52:12 10° WSW 03:56:34 60° S 03:59:53 17° E visible
24 Oct 3.3 05:32:15 10° WSW 05:35:56 58° W 05:35:56 58° W visible
25 Oct 3.3 03:52:59 10° WSW 03:57:23 64° S 04:00:26 19° E visible
25 Oct 3.5 05:33:01 10° WSW 05:36:29 47° WNW 05:36:29 47° WNW visible
26 Oct 3.1 03:53:45 10° WSW 03:58:11 72° SSE 04:00:59 22° E visible
26 Oct 3.9 05:33:49 10° WSW 05:37:01 37° WNW 05:37:01 37° WNW visible
27 Oct 3.0 03:54:30 10° WSW 03:58:56 83° SSE 04:01:32 24° ENE visible
27 Oct 4.3 05:34:39 10° WSW 05:37:34 29° WNW 05:37:34 29° WNW visible
28 Oct 2.9 03:55:14 10° WSW 03:59:40 83° NNW 04:02:05 26° ENE visible
28 Oct 4.6 05:35:34 10° W 05:38:07 23° WNW 05:38:07 23° WNW visible
29 Oct 3.0 03:55:56 10° WSW 04:00:20 67° NNW 04:02:39 27° NE visible
29 Oct 5.0 05:36:38 10° W 05:38:41 17° WNW 05:38:41 17° WNW visible
30 Oct 3.3 03:56:40 10° WSW 04:00:58 52° NNW 04:03:14 25° NNE visible
30 Oct 5.3 05:38:03 10° W 05:39:16 12° WNW 05:39:16 12° WNW visible
31 Oct 3.8 03:57:26 10° WSW 04:01:33 39° NW 04:03:50 22° NNE visible
01 Nov 4.2 03:58:15 10° WSW 04:02:05 30° NW 04:04:28 18° N visible
